RH
15 12 12 12 20 46 47 27 26 30 26 19 20 40 40 46 44 42 31 25 14 16 12 12 12 11 10 8 6 6 5 10 20 42 69 80 86 92 99 98 91 87 84 86 87 96 96 90 89 96 95 95 89 93
15 13 12 13 22 49 48 63 36 37 31 32 22 40 41 47 49 46 44 38 16 15 15 15 13 16 13 13 10 8 8 10 19 40 51 67 74 78 91 100 81 86 83 84 86 87 90 88 82 82 84 94 95 94
16 14 14 15 26 53 44 58 44 53 54 55 42 37 46 42 39 49 49 45 27 17 17 18 14 18 16 17 16 11 11 10 14 18 33 54 68 64 78 81 77 76 77 70 66 78 72 69 88 87 79 74 77 81
16 15 18 20 26 44 63 65 64 73 52 56 48 48 47 48 45 48 47 48 51 47 18 20 16 19 20 19 21 18 11 12 12 20 41 55 75 70 67 66 64 75 68 73 61 62 60 63 61 66 70 68 67 70
17 16 25 23 27 42 83 75 69 73 63 82 72 71 57 52 49 46 46 45 48 54 25 21 20 19 26 23 26 25 16 13 18 21 34 62 56 69 74 67 55 65 75 68 64 55 52 49 48 47 46 52 57 53
18 18 22 23 28 58 79 94 83 73 84 87 81 77 56 59 58 55 54 46 52 51 40 21 23 20 29 27 34 31 23 17 21 27 39 43 59 67 68 64 43 62 64 54 49 46 44 41 40 39 38 39 41 44
20 20 26 40 52 78 88 93 80 84 85 89 85 85 53 52 48 60 61 62 60 52 38 22 22 22 28 40 49 40 32 25 22 27 32 41 48 58 43 28 24 31 31 25 23 22 26 30 27 29 32 34 35 36
25 22 38 58 83 86 83 89 81 91 88 92 84 86 66 56 60 60 65 62 53 40 26 27 25 35 31 51 61 52 40 31 25 36 34 32 37 34 18 11 8 7 6 11 14 12 13 19 24 29 33 31 30 33
23 24 36 58 81 94 68 60 66 90 92 95 85 82 77 73 68 62 60 57 38 30 26 35 39 32 35 65 71 64 54 30 29 31 31 27 31 14 13 17 16 15 12 8 5 4 4 5 6 16 28 32 33 36
21 23 43 77 89 92 54 42 62 87 95 97 87 82 88 80 75 61 57 46 44 36 48 49 52 45 58 81 80 71 44 28 31 34 31 27 20 16 17 24 29 26 20 13 7 6 4 5 5 6 16 32 42 41
30 41 56 68 89 94 53 62 84 92 94 95 94 92 83 76 68 62 58 42 45 55 60 66 72 68 78 92 87 62 46 36 28 37 37 33 20 14 20 33 36 33 29 22 11 6 5 6 6 8 22 45 57 56
43 26 53 76 95 93 56 81 94 91 92 98 100 91 82 66 73 65 36 37 68 75 76 85 91 89 97 95 76 58 46 33 32 40 36 28 18 16 27 43 43 39 34 27 17 7 6 7 8 14 32 55 67 66
34 51 82 95 94 94 92 94 96 84 94 95 98 93 83 78 66 60 74 74 78 80 82 88 91 94 97 86 87 74 39 22 40 38 27 19 17 22 46 50 48 45 39 30 18 9 6 8 11 24 51 67 75 72
74 92 91 95 94 95 94 96 94 85 97 98 98 96 90 64 60 50 56 77 78 85 92 92 95 98 100 99 89 64 40 34 25 28 22 19 18 37 49 56 54 51 46 35 22 10 7 9 14 36 62 70 76 76
93 86 72 88 96 95 96 96 96 91 98 98 97 87 82 63 63 64 74 88 90 92 96 96 96 96 98 97 88 65 39 26 22 18 15 19 27 38 48 60 66 60 52 38 22 13 8 11 16 45 65 74 81 79
96 94 85 94 96 96 97 97 96 96 97 100 99 92 76 77 71 71 78 94 96 96 96 97 96 95 94 90 66 56 29 28 32 37 48 54 50 57 52 55 75 69 59 42 23 12 10 12 22 59 74 80 86 87
96 89 85 95 96 96 97 96 98 96 97 97 86 76 74 70 74 80 86 97 96 96 97 97 96 93 95 89 62 52 53 51 52 67 87 94 95 91 64 72 90 76 64 44 21 13 13 16 24 63 83 88 92 96
92 83 95 96 97 96 96 97 97 97 94 81 78 71 74 78 91 96 96 96 97 97 97 97 96 96 93 86 85 92 96 95 96 97 98 99 96 94 93 96 93 80 64 41 22 15 16 19 32 71 87 91 96 100
89 95 97 97 97 98 98 95 97 96 95 91 86 82 80 83 92 95 96 97 97 97 97 95 96 87 82 93 96 97 97 97 96 98 98 98 98 96 97 96 94 79 56 34 21 18 22 32 52 78 92 95 98 100
96 96 97 96 97 97 97 97 94 96 92 89 84 81 88 91 94 95 96 97 97 97 96 91 86 96 96 97 97 98 98 98 99 98 99 99 97 98 98 98 96 70 46 29 22 24 34 50 72 88 95 100 100 100
96 97 96 96 96 97 97 96 96 96 96 90 90 91 94 87 89 95 100 100 97 93 89 93 96 97 98 98 98 98 99 99 98 98 98 98 99 99 99 99 94 64 37 26 28 37 52 70 89 97 99 100 100 100
96 96 96 97 97 97 96 96 95 94 98 95 96 95 95 92 90 93 97 96 89 85 95 96 97 98 98 99 99 98 98 98 98 98 98 99 99 100 100 100 84 52 31 31 40 55 72 90 99 100 100 100 100 100
85 89 99 98 98 97 95 90 99 98 99 97 93 96 97 95 91 88 99 82 79 82 94 98 97 96 95 99 100 100 98 98 98 98 98 99 100 100 99 94 67 42 38 45 57 73 90 99 100 100 100 100 100 100
58 65 82 100 95 92 92 96 91 96 98 98 96 98 99 99 97 92 79 68 71 78 92 99 99 97 96 95 95 97 98 99 99 99 100 100 100 98 94 68 45 41 48 59 72 87 98 100 100 100 100 100 100 100
46 54 70 98 100 100 98 93 92 95 98 98 98 95 96 96 88 85 82 68 76 92 100 100 100 97 94 91 92 98 98 99 100 100 100 99 98 80 61 46 44 47 58 73 88 96 100 100 100 100 100 100 100 100
45 53 61 83 90 89 98 96 100 100 99 100 99 97 96 100 98 98 91 98 100 100 100 100 97 94 94 98 99 99 100 99 100 100 100 96 87 70 51 47 48 55 67 80 95 100 100 100 100 100 100 100 100 100
71 58 55 64 72 87 100 99 99 100 99 100 100 99 100 100 99 100 100 99 99 99 97 96 97 99 100 100 99 98 100 100 100 100 100 92 62 52 53 54 56 62 71 86 95 99 100 100 100 100 100 100 100 100
74 78 87 98 100 99 100 100 100 100 99 98 100 100 100 99 98 100 100 100 100 100 99 100 100 100 100 100 100 100 100 100 100 99 73 57 57 59 61 64 68 74 79 88 97 99 100 100 100 100 100 100 100 100
95 98 100 100 100 100 100 100 100 100 100 100 100 100 100 100 100 100 100 100 100 100 100 100 100 100 100 100 100 100 100 100 83 62 59 60 61 64 66 71 76 82 89 91 95 100 100 98 100 100 100 100 100 100
100 100 100 100 100 100 100 100 100 100 100 100 100 100 100 100 100 100 100 100 100 100 100 100 100 100 100 100 100 100 88 69 61 58 61 65 69 70 72 77 83 89 95 99 100 100 100 100 100 100 100 100 100 100
100 100 98 99 100 100 100 100 100 100 100 100 100 100 100 100 100 100 100 100 100 100 100 100 100 100 100 97 76 61 59 60 61 63 67 72 77 81 83 82 81 81 83 88 94 99 100 100 100 100 100 100 100 100
95 92 92 91 92 95 94 94 99 100 100 100 100 100 100 100 100 100 97 86 76 68 66 63 59 57 58 58 58 59 60 64 67 69 76 85 88 86 82 78 77 78 80 82 84 85 86 87 89 90 91 93 94 93
75 52 34 27 28 27 26 27 78 54 88 81 52 50 52 56 58 58 56 48 46 44 44 49 54 59 62 65 65 65 66 68 72 79 88 91 90 88 86 89 92 94 94 95 96 96 96 97 96 94 92 91 91 90
Wind_Speed
23 23 23 23 21 24 35 34 30 29 31 33 32 31 34 35 34 31 28 27 22 23 15 21 24 25 29 30 31 27 13 20 13 13 8 6 6 8 5 5 7 7 4 3 2 2 2 14 11 5 10 15 17 17
23 23 22 22 20 23 35 39 34 29 30 31 31 29 30 32 34 33 30 29 21 20 15 21 18 25 24 29 27 25 22 18 12 10 8 4 4 5 6 3 8 3 5 4 3 5 11 17 17 14 18 22 21 21
25 23 22 22 20 25 33 40 31 35 37 37 29 27 26 27 32 33 32 31 25 21 16 21 18 21 22 25 27 25 22 18 12 8 6 3 2 4 3 6 12 12 5 8 10 6 13 16 13 15 19 22 24 29
25 24 22 22 22 25 32 38 40 36 35 37 26 28 30 25 26 29 32 30 28 26 14 21 16 15 20 19 25 25 21 17 13 9 5 4 4 3 7 9 11 9 13 14 15 11 16 11 20 21 19 22 25 27
27 25 23 23 23 28 34 36 40 40 36 40 31 29 28 24 25 28 31 29 33 27 22 21 15 12 19 18 25 27 21 19 13 10 7 5 7 8 7 9 5 11 12 14 17 20 18 17 20 24 22 23 26 28
27 26 25 23 23 33 30 34 38 39 37 38 32 26 25 26 28 34 33 26 33 32 21 15 12 9 19 18 26 27 23 20 15 11 9 7 6 8 6 9 11 10 14 16 18 21 22 23 21 25 26 26 27 30
30 26 27 23 26 32 33 34 37 42 40 36 35 30 25 24 31 28 29 33 34 29 15 7 7 9 16 20 28 29 27 24 19 13 8 9 8 9 9 10 12 16 19 21 21 22 22 25 24 26 30 30 29 30
31 30 27 30 31 33 34 33 38 44 39 37 35 28 24 26 29 26 31 32 28 17 8 4 6 12 14 20 28 27 27 25 19 14 13 11 11 8 4 9 11 14 17 21 24 27 29 27 28 28 28 31 32 33
32 33 30 29 35 34 33 36 43 44 38 35 32 30 28 29 28 30 33 27 10 7 5 8 13 13 9 24 27 27 25 20 16 14 13 10 12 7 5 10 14 17 19 22 24 27 28 30 30 31 32 31 33 32
32 29 29 35 33 44 34 38 43 45 37 31 34 36 32 27 26 30 29 7 6 7 14 13 12 14 19 27 28 26 13 10 10 11 9 12 19 13 7 14 19 20 20 20 20 22 24 25 28 28 30 32 33 34
35 31 32 34 38 35 30 35 43 44 33 28 32 36 32 27 29 23 6 3 4 6 8 16 21 21 25 28 26 11 12 10 7 8 7 8 11 12 8 16 20 21 24 26 24 24 24 24 24 25 26 28 30 33
37 33 35 44 40 34 30 40 45 47 32 30 31 38 29 17 8 6 5 7 4 4 15 24 25 28 30 28 13 9 10 7 7 10 7 8 10 11 14 21 22 23 24 26 26 24 25 26 26 26 27 27 28 31
35 33 42 41 45 43 36 44 42 46 31 34 35 36 12 6 10 7 10 12 9 19 27 30 30 31 29 13 11 9 7 9 9 8 9 15 14 8 18 22 24 25 25 25 26 26 24 24 25 24 23 25 25 25
39 41 41 41 44 38 41 42 47 34 29 34 34 14 7 9 12 17 18 18 18 26 32 36 33 26 30 21 9 7 11 9 8 9 14 13 11 15 19 24 26 26 26 25 25 25 23 22 22 23 23 22 22 21
40 36 43 48 47 45 43 44 31 29 31 35 25 15 18 21 22 21 22 29 35 37 41 42 35 27 23 12 9 10 7 9 10 9 9 12 18 20 23 25 26 26 26 25 24 25 24 21 20 19 20 20 19 17
47 46 50 46 40 33 30 31 31 33 38 46 46 37 41 41 44 43 39 42 41 43 44 40 27 17 15 9 11 13 10 12 17 16 18 23 25 28 28 27 27 26 25 24 23 22 22 21 19 17 18 17 16 14
44 46 23 23 21 22 23 30 30 33 39 41 43 47 49 48 46 45 44 44 42 43 43 37 20 16 12 12 18 20 32 30 26 28 32 30 29 30 30 30 27 24 24 23 22 21 19 18 17 17 16 15 13 11
36 22 23 24 26 30 30 31 34 35 43 50 52 52 48 47 46 45 46 48 45 43 41 37 31 27 24 30 35 37 32 30 30 32 31 31 30 30 31 28 24 22 22 22 21 20 18 18 16 16 15 14 12 10
24 26 29 28 23 24 27 36 38 43 42 44 47 45 45 45 43 43 44 45 44 42 37 37 25 36 44 42 37 36 31 31 34 34 32 29 29 31 29 27 21 20 20 20 19 18 17 17 16 15 15 14 12 10
27 26 25 26 27 29 31 35 39 37 41 44 43 40 39 40 41 41 41 41 41 38 38 42 45 46 45 42 41 39 36 34 31 30 29 29 31 29 27 23 18 18 19 19 18 17 17 16 16 15 14 14 13 11
34 31 28 25 26 25 30 31 29 26 30 34 37 37 38 38 37 38 39 39 39 43 45 44 43 40 41 42 41 40 38 36 33 31 30 29 26 26 23 18 16 17 18 18 17 16 16 16 15 14 14 13 13 12
22 24 27 27 28 28 33 35 33 35 35 40 39 38 38 38 39 40 39 38 39 34 35 36 33 31 31 31 32 31 30 30 29 28 26 24 22 19 16 14 15 16 16 16 16 15 15 15 14 13 13 13 13 12
27 29 30 29 26 28 29 29 28 29 30 30 32 34 36 37 35 32 25 29 34 33 33 31 27 25 25 24 24 24 25 26 25 24 21 18 16 14 12 13 15 15 15 14 14 14 14 14 13 13 13 13 13 12
18 18 19 13 14 20 22 24 27 28 29 28 28 30 32 31 29 26 28 28 29 28 26 24 19 18 18 19 19 20 21 21 19 16 14 14 12 11 12 13 14 14 13 13 13 13 13 13 12 12 12 13 13 13
9 8 7 10 11 12 17 19 19 20 22 22 21 23 21 21 27 32 28 24 22 21 19 20 17 17 17 18 18 17 15 13 12 13 12 9 10 12 13 13 13 13 13 12 12 12 12 11 11 12 12 13 13 13
5 6 7 7 9 12 14 16 19 20 22 23 18 20 27 28 27 16 22 21 19 15 14 16 19 21 21 17 14 12 11 11 10 9 10 11 12 13 13 12 13 13 12 12 12 12 12 12 11 11 12 12 12 13
7 7 8 10 15 17 20 21 22 23 23 24 23 24 21 11 10 12 14 13 15 20 21 21 20 18 16 14 13 11 10 10 10 11 13 13 13 13 12 12 13 12 12 12 12 12 12 13 13 14 13 13 12 12
5 9 10 13 16 18 21 22 22 20 16 16 16 13 8 8 13 18 22 24 25 25 24 20 16 14 12 12 11 11 11 12 13 14 13 13 13 13 13 12 12 11 11 12 12 12 12 12 13 13 13 13 14 14
12 14 16 18 20 20 22 21 21 20 18 18 20 21 24 26 26 27 27 27 25 21 18 15 12 11 11 11 12 12 13 14 14 13 14 13 13 12 11 11 10 11 10 11 11 12 13 13 12 12 13 14 14 14
14 17 20 21 20 19 18 16 19 22 22 22 22 22 22 22 22 21 19 17 15 13 12 11 11 11 11 12 13 14 14 14 14 13 12 11 10 9 9 8 7 8 8 8 9 11 12 12 13 13 14 14 14 15
18 17 15 15 14 14 15 15 15 15 14 13 13 12 11 10 10 9 10 9 9 9 9 10 11 12 14 15 15 14 14 13 12 11 10 9 8 7 6 6 6 7 7 7 7 8 9 10 11 12 13 14 15 16
11 11 10 11 10 10 11 11 11 10 11 11 10 9 7 5 5 6 8 9 9 9 10 11 12 13 13 13 13 13 12 11 10 10 9 8 7 7 7 7 7 7 7 7 8 9 10 11 12 12 13 14 15 16
9 10 11 12 12 13 13 12 8 11 7 6 7 8 7 6 6 9 10 12 13 13 13 13 13 13 13 13 12 12 11 11 10 9 9 8 8 9 9 9 10 10 11 11 12 12 13 15 16 17 18 18 18 19
Wind_Direction
322 326 329 332 337 347 354 346 346 350 355 355 351 359 1 1 2 3 0 359 358 6 4 8 14 15 17 19 18 17 37 26 37 48 53 39 42 33 7 25 22 35 11 13 348 277 237 330 326 287 263 273 261 255
314 318 321 324 331 332 339 340 340 347 352 354 351 349 356 357 358 360 359 355 349 354 351 5 7 10 11 15 18 16 17 16 24 41 41 55 28 14 2 325 359 341 352 326 319 288 305 324 327 317 294 286 287 281
305 309 313 318 319 321 332 338 337 336 334 334 340 348 349 354 352 351 356 354 350 344 346 353 359 6 5 8 8 8 10 8 8 16 18 38 38 325 312 318 319 325 313 326 327 318 313 314 310 315 307 302 299 292
297 301 305 312 313 314 323 327 333 335 335 339 339 340 341 342 348 346 348 352 352 339 331 340 344 358 1 5 5 3 358 358 353 347 358 345 324 297 298 300 308 314 312 313 312 307 313 309 308 301 298 298 296 296
293 294 296 298 299 308 313 320 329 330 334 335 327 327 336 334 339 339 335 338 348 343 321 321 328 342 356 360 1 358 351 350 345 333 321 316 315 310 304 304 313 312 308 318 317 317 315 309 304 297 296 287 282 283
288 290 293 297 300 306 313 313 318 325 333 335 331 325 326 323 326 325 325 327 332 335 319 315 311 312 348 348 353 351 347 342 332 319 305 296 308 310 307 298 330 324 319 318 316 314 313 312 313 307 303 299 293 290
284 285 286 293 300 302 304 309 312 321 326 330 330 318 322 322 326 326 320 321 326 329 315 296 292 309 332 346 344 342 339 331 319 303 282 276 289 287 289 304 332 329 324 323 325 323 322 319 315 306 302 298 297 296
277 277 284 283 291 296 301 299 303 319 324 326 327 323 317 321 327 322 319 320 321 321 307 270 285 307 312 337 336 333 327 320 308 289 283 271 277 272 259 338 338 335 332 327 324 320 317 316 314 314 314 309 303 297
274 277 278 275 288 302 295 295 304 314 323 325 328 329 323 324 322 318 318 318 316 300 281 285 305 311 296 325 331 330 322 301 291 277 270 259 247 243 287 337 343 342 339 335 327 320 317 315 312 310 310 310 310 305
273 272 275 277 288 297 294 296 299 308 317 317 331 337 328 322 319 317 316 308 314 299 306 302 311 304 306 324 327 327 301 277 277 270 264 245 252 237 288 338 339 336 333 333 329 323 319 313 309 307 305 311 315 315
270 267 269 268 282 294 291 287 300 308 315 319 323 330 325 314 308 306 263 231 293 301 316 318 319 308 308 320 319 307 287 278 260 253 239 244 259 208 307 336 337 337 334 332 330 326 322 318 315 313 311 312 316 318
267 265 270 274 280 286 281 285 301 306 314 314 314 324 322 312 278 250 235 205 295 276 325 330 319 312 310 318 312 299 268 247 247 245 245 242 244 218 324 332 332 333 334 332 331 328 324 320 319 318 317 316 320 320
260 260 265 267 272 284 272 299 303 307 311 310 308 316 304 259 249 241 228 227 251 296 315 315 320 313 311 312 292 274 248 241 255 235 241 247 211 287 328 331 330 331 334 335 330 327 322 317 316 318 316 316 320 321
261 270 271 265 270 282 292 293 302 299 302 303 293 285 243 242 246 265 267 254 279 293 295 304 302 293 295 300 265 248 252 255 240 236 249 249 241 305 326 330 330 331 332 333 329 324 320 315 311 314 315 315 318 322
257 260 261 263 273 284 295 302 294 291 292 290 268 275 260 275 266 277 272 275 282 288 290 295 290 286 282 253 237 227 236 235 231 244 262 254 279 301 316 319 324 328 330 330 327 322 318 311 308 308 310 310 316 320
258 254 261 275 282 293 298 296 278 284 280 270 260 261 278 276 277 273 275 287 282 283 289 285 281 271 256 222 226 219 231 245 272 290 304 296 294 299 304 308 316 322 326 325 322 319 313 308 305 303 304 305 310 316
264 269 276 282 282 283 278 270 270 270 263 256 264 279 284 290 291 288 285 290 285 283 285 277 259 260 238 227 235 243 261 282 281 281 291 293 294 294 294 300 307 315 321 320 317 313 307 302 299 295 294 298 301 305
260 266 275 284 287 279 272 262 266 263 260 269 277 283 285 288 288 290 291 291 291 291 289 267 263 250 247 262 263 278 285 278 278 284 291 296 293 289 291 296 300 308 314 315 312 308 302 297 293 287 285 285 287 288
270 271 275 279 270 255 262 268 266 261 263 269 276 284 288 288 288 293 294 293 292 289 281 271 259 266 277 284 285 290 290 289 287 284 292 294 290 290 290 290 294 302 308 309 307 302 297 290 285 280 276 274 272 271
265 265 262 266 263 263 263 261 263 265 268 275 281 285 287 289 291 291 293 293 288 281 276 276 290 292 289 289 286 287 292 298 297 292 290 289 288 288 286 286 292 299 303 303 300 296 290 283 278 274 269 267 265 261
261 257 262 263 258 262 263 264 262 266 272 276 284 286 289 292 294 294 293 290 285 287 294 300 302 304 298 291 288 287 291 294 292 289 288 287 286 282 281 281 291 297 298 297 293 290 284 277 272 268 263 261 259 256
254 262 268 259 257 266 266 267 269 273 276 281 285 287 288 290 291 292 294 293 298 301 305 310 308 302 297 292 289 285 283 282 283 284 284 281 278 275 275 287 294 294 292 291 288 283 277 272 268 263 258 256 256 253
269 261 258 263 268 266 265 266 269 273 274 278 288 287 285 292 298 303 301 304 310 312 307 307 306 302 297 292 285 278 276 279 281 280 279 275 268 272 286 292 291 289 289 287 282 275 270 267 264 259 255 255 254 251
258 260 260 260 246 247 260 268 278 282 284 289 296 295 293 295 299 305 310 316 311 308 307 307 308 306 301 296 290 285 283 283 279 273 266 263 274 289 292 289 290 290 285 279 274 270 267 265 261 258 256 255 253 250
257 256 227 234 249 254 263 277 287 294 301 308 308 310 304 309 304 307 306 302 300 302 303 305 306 306 306 304 298 288 281 276 269 263 271 287 295 295 294 293 291 285 277 269 265 264 264 262 258 256 256 256 253 250
233 226 225 235 250 266 277 288 298 302 302 299 297 300 301 299 295 283 285 284 291 298 307 312 310 307 304 297 289 287 284 280 287 294 294 296 297 296 294 291 287 280 272 264 260 259 259 259 258 256 256 255 252 250
221 224 245 276 281 287 290 297 301 303 305 301 296 296 294 279 275 267 276 285 301 310 312 311 307 298 290 289 288 287 286 285 287 292 298 298 295 293 291 287 283 274 267 263 261 260 259 258 257 256 255 254 255 254
248 270 277 293 296 296 297 302 304 308 305 300 298 285 268 270 283 291 295 299 303 307 308 306 298 289 290 290 285 283 286 292 295 298 297 295 293 290 286 281 276 271 265 261 261 261 260 259 259 259 259 258 258 258
290 293 292 291 297 298 299 300 296 294 292 287 286 287 285 285 286 288 291 296 300 302 299 292 287 286 286 287 289 291 294 296 298 295 295 293 289 284 281 278 274 269 269 267 263 261 259 259 261 262 261 260 260 261
302 301 298 300 302 302 302 295 291 292 292 291 290 290 288 288 290 293 297 299 298 294 288 282 279 281 285 288 292 294 296 296 296 293 291 288 286 286 281 278 277 276 274 270 263 259 260 257 256 258 260 262 262 263
311 312 314 316 318 314 310 311 312 313 312 312 312 309 308 309 310 314 316 314 308 301 295 291 289 288 289 292 296 299 297 294 291 289 289 287 280 275 277 281 280 277 276 273 269 266 265 264 263 260 261 263 264 265
336 339 346 349 350 345 342 339 336 334 336 335 338 340 346 349 352 345 340 337 332 324 315 309 305 305 301 297 294 293 293 292 290 285 276 270 270 274 277 278 278 279 282 284 282 278 274 272 271 271 271 271 270 269
11 8 5 6 3 358 351 344 343 340 344 4 16 16 15 4 358 345 332 327 326 325 320 316 311 308 305 303 301 298 293 288 282 275 270 269 271 273 273 273 276 279 283 283 281 280 279 278 277 277 276 275 274 274